Guymon, OK

11:05 AM CDT on August 21, 2017 (GMT -0500)
Guymon Municipal

Weather History for KGUY - September, 2013

Change the Weather History Date:

Monday, September 2, 2013

  Actual Average Record
Temperature  
Mean Temperature 77 °F 76 °F  
Max Temperature 92 °F 90 °F 102 °F (2000)
Min Temperature 62 °F 62 °F 52 °F (2006)
Degree Days  
Heating Degree Days 0 0  
Month to date heating degree days 0 0  
Since 1 July heating degree days 0 1  
Cooling Degree Days 12 11  
Month to date cooling degree days 29 22  
Year to date cooling degree days 1580 1271  
Growing Degree Days 26 (Base 50)    
Moisture  
Dew Point 54 °F    
Average Humidity 50    
Maximum Humidity 78    
Minimum Humidity 21    
Precipitation  
Precipitation 0.00 in 0.07 in 0.69 in (2006)
Month to date precipitation T 0.14  
Year to date precipitation 10.55 14.91  
Snow  
Snow 0.00 in - - ()
Month to date snowfall 0.0  
Since 1 July snowfall 0.0  
Since 1 September snowfall 0.0  
Snow Depth 0.00 in    
Sea Level Pressure  
Sea Level Pressure 29.97 in    
Wind  
Wind Speed 7 mph (ESE)    
Max Wind Speed 15 mph    
Max Gust Speed 21 mph    
Visibility 10 miles    
Events      
T = Trace of Precipitation, MM = Missing Value Source: NWS Daily Summary

Daily Weather History Graph

Daily Weather History Graph

Search for Another Location

Airport or City:

Trip Planner

Search our weather history database for the weather conditions in past years. The results will help you decide how hot, cold, wet, or windy it might be!

Date:

Astronomy

Sep. 02, 2013 Rise Set
Actual Time 7:18 AM CDT 8:12 PM CDT
Civil Twilight 6:51 AM CDT 8:38 PM CDT
Nautical Twilight 6:20 AM CDT 9:09 PM CDT
Astronomical Twilight 5:48 AM CDT 9:42 PM CDT
Moon 4:39 AM CDT (9/2) 6:25 PM CDT (9/2)
Length of Visible Light 13h 46m
Length of Day
12h 54m
Waning Crescent, 8% of the Moon is Illuminated
Sep 2
Waning Crescent
Sep 5
New
Sep 12
First Quarter
Sep 19
Full
Sep 26
Last Quarter

Hourly Weather History & Observations

Time (CDT) Temp. Heat Index Dew Point Humidity Pressure Visibility Wind Dir Wind Speed Gust Speed Precip Events Conditions
12:53 AM 75.9 °F - 57.0 °F 52% 29.96 in 10.0 mi East 8.1 mph - N/A   Clear
1:53 AM 73.9 °F - 57.9 °F 57% 29.96 in 10.0 mi Calm Calm - N/A   Clear
2:53 AM 72.0 °F - 57.9 °F 61% 29.96 in 10.0 mi East 8.1 mph - N/A   Clear
3:53 AM 72.0 °F - 57.0 °F 59% 29.97 in 10.0 mi East 5.8 mph - N/A   Clear
4:53 AM 68.0 °F - 57.0 °F 68% 29.98 in 10.0 mi East 4.6 mph - N/A   Clear
5:53 AM 66.9 °F - 55.9 °F 68% 29.99 in 10.0 mi Calm Calm - N/A   Clear
6:53 AM 64.0 °F - 55.9 °F 75% 30.01 in 10.0 mi Calm Calm - N/A   Clear
7:53 AM 62.1 °F - 55.9 °F 80% 30.03 in 10.0 mi Calm Calm - N/A   Clear
8:53 AM 70.0 °F - 57.9 °F 65% 30.02 in 10.0 mi Calm Calm - N/A   Clear
9:53 AM 73.9 °F - 62.1 °F 66% 30.03 in 10.0 mi SE 9.2 mph - N/A   Clear
10:53 AM 79.0 °F - 62.1 °F 56% 30.03 in 10.0 mi SSE 10.4 mph - N/A   Clear
11:53 AM 82.9 °F 83.3 °F 61.0 °F 47% 30.02 in 10.0 mi SE 11.5 mph - N/A   Clear
12:53 PM 86.0 °F 85.7 °F 60.1 °F 41% 29.99 in 10.0 mi Variable 6.9 mph 16.1 mph N/A   Clear
1:53 PM 88.0 °F 85.7 °F 53.1 °F 30% 29.97 in 10.0 mi ESE 8.1 mph - N/A   Clear
2:53 PM 89.1 °F - 50.0 °F 26% 29.95 in 10.0 mi SSE 11.5 mph 18.4 mph N/A   Clear
3:53 PM 90.0 °F - 48.9 °F 24% 29.92 in 10.0 mi SE 11.5 mph 20.7 mph N/A   Clear
4:53 PM 91.0 °F - 46.9 °F 22% 29.91 in 10.0 mi East 9.2 mph - N/A   Clear
5:53 PM 90.0 °F - 46.9 °F 23% 29.91 in 10.0 mi SE 11.5 mph - N/A   Clear
6:53 PM 88.0 °F - 46.9 °F 24% 29.91 in 10.0 mi SE 12.7 mph - N/A   Clear
7:53 PM 84.9 °F - 45.0 °F 25% 29.92 in 10.0 mi ESE 10.4 mph - N/A   Clear
8:53 PM 81.0 °F - 46.0 °F 29% 29.92 in 10.0 mi ESE 8.1 mph - N/A   Clear
9:53 PM 77.0 °F - 46.9 °F 34% 29.95 in 10.0 mi SE 6.9 mph - N/A   Clear
10:53 PM 73.0 °F - 48.0 °F 41% 29.96 in 10.0 mi SE 6.9 mph - N/A   Clear
11:53 PM 73.0 °F - 50.0 °F 44% 29.97 in 10.0 mi SE 8.1 mph - N/A   Mostly Cloudy